contact:dominique.lefevre@mio.osupytheas.fr, maurice.libes@osupytheas.fr, didier.mallarino@osupytheas.fr
Project:EMSO http://www.emso-fr.org/EMSO-France
Depth: 2436.0 m
Title:EMSO Ligure Ouest : Data MII capteur AQUADOPP
Date,Latitude,Longitude,X_East,Y_North,Z_Up,Amplitude_X,Amplitude_Y,Amplitude_Z,Batterie,SoundSpeed,Heading,Pitch,Roll,Pressure,TIS,Speed,Direction
, degrees North, degrees East, m.s-1, m.s-1,m.s-1, 1, 1, 1, Volt, m.s-1, degree, degree, degree, dbar, degree_C, m.s-1, degree
2023-03-07T00:04:03,42.805,6.029,-0.027,0.009,-0.053,104.0,104.0,102.0,13.4,1505.2,324.5,-0.7,1.8,2471.256,13.29,0.028,288.4
2023-03-07T00:07:03,42.805,6.029,-0.036,-0.007,-0.047,103.0,103.0,103.0,13.3,1505.2,338.9,-0.7,1.8,2471.247,13.29,0.036,259.0
2023-03-07T00:10:03,42.805,6.029,-0.03,0.022,-0.013,103.0,105.0,102.0,13.4,1505.2,319.8,-0.7,1.8,2471.243,13.29,0.037,306.3
2023-03-07T00:13:03,42.805,6.029,-0.019,-0.008,-0.055,104.0,104.0,103.0,13.4,1505.2,326.3,-0.7,1.8,2471.246,13.29,0.02,247.2
2023-03-07T00:16:03,42.805,6.029,-0.003,0.005,-0.003,104.0,103.0,102.0,13.4,1505.2,335.2,-0.7,1.9,2471.227,13.29,0.005,329.0
2023-03-07T00:19:03,42.805,6.029,0.003,-0.003,-0.006,106.0,102.0,103.0,13.3,1505.2,332.4,-0.7,1.8,2471.183,13.29,0.004,135.0
2023-03-07T00:22:03,42.805,6.029,-0.039,-0.003,-0.022,106.0,103.0,102.0,13.4,1505.2,317.2,-0.8,1.8,2471.139,13.29,0.039,265.6
2023-03-07T00:25:03,42.805,6.029,-0.024,-0.004,-0.036,104.0,102.0,103.0,13.4,1505.2,315.5,-0.8,1.8,2471.187,13.29,0.024,260.5
2023-03-07T00:28:03,42.805,6.029,-0.014,0.002,-0.002,104.0,105.0,101.0,13.4,1505.2,319.4,-0.8,1.8,2471.185,13.29,0.014,278.1
2023-03-07T00:31:03,42.805,6.029,-0.036,0.017,-0.025,104.0,104.0,102.0,13.3,1505.2,332.1,-0.7,1.8,2471.162,13.29,0.039,295.3
2023-03-07T00:34:03,42.805,6.029,-0.023,-0.004,-0.024,103.0,104.0,102.0,13.4,1505.2,324.1,-0.8,1.8,2471.22,13.29,0.023,260.1
2023-03-07T00:37:03,42.805,6.029,-0.019,0.025,-0.014,104.0,102.0,102.0,13.4,1505.2,340.6,-0.7,1.8,2471.189,13.29,0.031,322.8
2023-03-07T00:40:03,42.805,6.029,-0.018,0.012,-0.031,104.0,103.0,102.0,13.4,1505.2,333.4,-0.8,1.8,2471.169,13.29,0.021,303.7
2023-03-07T00:43:03,42.805,6.029,-0.031,0.003,-0.027,104.0,103.0,102.0,13.4,1505.2,324.0,-0.8,1.8,2471.163,13.29,0.031,275.5
2023-03-07T00:46:03,42.805,6.029,-0.02,0.018,-0.031,102.0,104.0,102.0,13.3,1505.2,339.5,-0.8,1.8,2471.225,13.29,0.026,312.0
2023-03-07T00:49:03,42.805,6.029,-0.045,0.006,-0.03,103.0,103.0,102.0,13.4,1505.2,333.4,-0.8,1.8,2471.183,13.29,0.045,277.6
2023-03-07T00:52:03,42.805,6.029,-0.025,0.002,-0.035,104.0,103.0,103.0,13.3,1505.2,318.8,-0.7,1.8,2471.192,13.29,0.025,274.6
2023-03-07T00:55:03,42.805,6.029,-0.033,-0.01,-0.016,104.0,103.0,102.0,13.4,1505.2,333.0,-0.8,1.8,2471.173,13.29,0.034,253.1
2023-03-07T00:58:03,42.805,6.029,-0.003,-0.002,-0.01,105.0,104.0,102.0,13.4,1505.2,323.6,-0.8,1.8,2471.197,13.29,0.003,236.3
2023-03-07T01:04:03,42.805,6.029,-0.02,-0.009,-0.015,106.0,104.0,103.0,13.3,1505.2,334.6,-0.8,1.9,2471.229,13.29,0.021,245.8
2023-03-07T01:07:03,42.805,6.029,-0.024,-0.001,-0.041,105.0,106.0,102.0,13.4,1505.2,334.7,-0.8,1.8,2471.256,13.29,0.024,267.6
2023-03-07T01:10:03,42.805,6.029,-0.012,0.005,-0.04,105.0,104.0,103.0,13.3,1505.2,320.6,-0.7,1.9,2471.24,13.29,0.013,292.6
2023-03-07T01:13:03,42.805,6.029,-0.007,-0.02,-0.027,103.0,102.0,102.0,13.3,1505.2,338.2,-0.8,1.8,2471.218,13.29,0.021,199.3
2023-03-07T01:16:03,42.805,6.029,-0.018,0.004,-0.028,104.0,103.0,103.0,13.3,1505.2,327.9,-0.8,1.8,2471.154,13.29,0.018,282.5
2023-03-07T01:19:03,42.805,6.029,0.003,0.019,0.022,103.0,103.0,102.0,13.4,1505.2,338.0,-0.7,1.8,2471.191,13.29,0.019,9.0
2023-03-07T01:22:03,42.805,6.029,-0.006,-0.017,-0.004,103.0,104.0,102.0,13.4,1505.2,324.5,-0.7,1.8,2471.204,13.29,0.018,199.4
2023-03-07T01:25:03,42.805,6.029,-0.006,0.02,-0.023,105.0,103.0,101.0,13.3,1505.2,323.8,-0.7,1.8,2471.177,13.29,0.02,343.3
2023-03-07T01:28:03,42.805,6.029,-0.011,-0.001,-0.013,105.0,103.0,102.0,13.3,1505.2,321.7,-0.8,1.8,2471.16,13.29,0.011,264.8
2023-03-07T01:31:03,42.805,6.029,-0.012,-0.015,-0.009,104.0,104.0,102.0,13.4,1505.2,330.4,-0.8,1.8,2471.219,13.29,0.019,218.7
2023-03-07T01:34:03,42.805,6.029,0.006,-0.001,-0.012,105.0,101.0,102.0,13.4,1505.2,324.9,-0.8,1.8,2471.142,13.29,0.006,99.5
2023-03-07T01:37:03,42.805,6.029,-0.001,0.012,-0.045,102.0,106.0,102.0,13.4,1505.2,327.5,-0.8,1.8,2471.144,13.29,0.012,355.2
2023-03-07T01:40:03,42.805,6.029,0.022,-0.015,-0.017,103.0,103.0,102.0,13.4,1505.2,321.7,-0.8,1.8,2471.209,13.29,0.026,124.3
2023-03-07T01:43:03,42.805,6.029,0.037,0.005,0.009,103.0,104.0,103.0,13.3,1505.2,322.6,-0.8,1.8,2471.139,13.29,0.037,82.3
2023-03-07T01:46:03,42.805,6.029,0.023,-0.005,-0.003,101.0,104.0,105.0,13.3,1505.2,330.5,-0.8,1.8,2471.195,13.29,0.023,102.3
2023-03-07T01:49:03,42.805,6.029,-0.013,0.003,-0.015,102.0,102.0,102.0,13.4,1505.2,337.6,-0.7,1.8,2471.14,13.29,0.013,283.0
2023-03-07T01:52:03,42.805,6.029,0.022,0.009,-0.011,104.0,103.0,101.0,13.4,1505.2,318.9,-0.7,1.8,2471.136,13.29,0.023,67.8
2023-03-07T01:55:03,42.805,6.029,0.014,-0.009,-0.026,102.0,102.0,102.0,13.4,1505.2,324.9,-0.8,1.8,2471.175,13.29,0.016,122.7
2023-03-07T01:58:03,42.805,6.029,0.015,0.001,-0.045,101.0,103.0,102.0,13.4,1505.2,331.6,-0.8,1.8,2471.161,13.29,0.015,86.2
2023-03-07T02:04:03,42.805,6.029,-0.009,-0.005,-0.038,104.0,103.0,101.0,13.4,1505.2,316.7,-0.7,1.8,2471.222,13.29,0.01,240.9
2023-03-07T02:07:03,42.805,6.029,0.012,-0.017,-0.041,104.0,101.0,102.0,13.3,1505.2,332.5,-0.8,1.8,2471.187,13.29,0.02,144.8
2023-03-07T02:10:03,42.805,6.029,0.014,0.011,-0.036,104.0,103.0,102.0,13.4,1505.2,329.5,-0.8,1.9,2471.216,13.29,0.017,51.8
2023-03-07T02:13:03,42.805,6.029,-0.008,-0.001,-0.031,103.0,104.0,101.0,13.3,1505.2,315.5,-0.8,1.8,2471.198,13.29,0.008,262.9
2023-03-07T02:16:03,42.805,6.029,-0.006,-0.001,0.004,105.0,102.0,103.0,13.4,1505.2,324.3,-0.7,1.8,2471.16,13.29,0.006,260.5
2023-03-07T02:19:03,42.805,6.029,-0.002,-0.012,-0.026,103.0,101.0,104.0,13.4,1505.2,317.8,-0.8,1.8,2471.167,13.29,0.012,189.5
2023-03-07T02:22:03,42.805,6.029,0.016,-0.01,-0.041,104.0,104.0,102.0,13.3,1505.2,325.4,-0.7,1.8,2471.222,13.29,0.018,122.0
2023-03-07T02:25:03,42.805,6.029,0.022,0.011,-0.006,105.0,104.0,102.0,13.4,1505.2,335.6,-0.7,1.8,2471.174,13.29,0.024,63.4
2023-03-07T02:28:03,42.805,6.029,0.023,-0.005,0.002,104.0,103.0,101.0,13.3,1505.2,330.5,-0.8,1.8,2471.202,13.29,0.023,102.3
2023-03-07T02:31:03,42.805,6.029,0.013,-0.004,-0.001,104.0,102.0,104.0,13.3,1505.2,329.6,-0.7,1.8,2471.164,13.29,0.013,107.1
2023-03-07T02:34:03,42.805,6.029,0.005,0.006,-0.02,102.0,103.0,103.0,13.3,1505.2,330.1,-0.8,1.8,2471.177,13.29,0.007,39.8
2023-03-07T02:37:03,42.805,6.029,0.016,-0.002,-0.013,103.0,103.0,103.0,13.4,1505.2,339.7,-0.8,1.8,2471.195,13.29,0.016,97.1
2023-03-07T02:40:03,42.805,6.029,0.008,-0.007,-0.017,103.0,103.0,103.0,13.3,1505.2,337.6,-0.7,1.8,2471.205,13.29,0.01,131.2
2023-03-07T02:43:03,42.805,6.029,0.0,0.006,-0.009,103.0,102.0,102.0,13.4,1505.2,317.5,-0.8,1.8,2471.195,13.29,0.006,0.0
2023-03-07T02:46:03,42.805,6.029,0.045,-0.008,-0.016,102.0,103.0,103.0,13.4,1505.2,330.3,-0.8,1.8,2471.16,13.29,0.045,100.1
2023-03-07T02:49:03,42.805,6.029,0.029,-0.001,-0.034,102.0,103.0,102.0,13.4,1505.2,338.7,-0.8,1.8,2471.173,13.29,0.029,92.0
2023-03-07T02:52:03,42.805,6.029,0.02,-0.007,0.012,102.0,103.0,102.0,13.3,1505.2,326.5,-0.8,1.8,2471.208,13.29,0.021,109.3
2023-03-07T02:55:03,42.805,6.029,0.027,0.006,-0.014,102.0,105.0,103.0,13.4,1505.2,327.3,-0.8,1.8,2471.171,13.29,0.027,77.5
2023-03-07T02:58:03,42.805,6.029,0.007,-0.014,-0.027,103.0,105.0,102.0,13.4,1505.2,339.3,-0.8,1.8,2471.202,13.29,0.015,153.4
2023-03-07T03:04:03,42.805,6.029,0.025,-0.012,-0.026,104.0,103.0,102.0,13.4,1505.2,331.9,-0.8,1.8,2471.261,13.28,0.027,115.6
2023-03-07T03:07:03,42.805,6.029,0.033,-0.02,-0.04,105.0,103.0,102.0,13.4,1505.2,337.0,-0.8,1.8,2471.247,13.28,0.038,121.2
2023-03-07T03:10:03,42.805,6.029,0.021,-0.008,-0.008,105.0,104.0,103.0,13.4,1505.2,321.0,-0.8,1.8,2471.252,13.29,0.022,110.9
2023-03-07T03:13:03,42.805,6.029,0.014,0.001,-0.002,105.0,105.0,103.0,13.3,1505.2,318.3,-0.8,1.8,2471.231,13.29,0.014,85.9
2023-03-07T03:16:03,42.805,6.029,0.019,-0.008,-0.034,104.0,104.0,103.0,13.3,1505.2,319.4,-0.8,1.8,2471.218,13.29,0.02,112.8
2023-03-07T03:19:03,42.805,6.029,0.023,-0.012,-0.01,104.0,104.0,103.0,13.4,1505.2,332.1,-0.7,1.8,2471.23,13.29,0.025,117.6
2023-03-07T03:22:03,42.805,6.029,0.042,-0.036,-0.014,104.0,104.0,104.0,13.3,1505.2,338.5,-0.7,1.8,2471.202,13.29,0.055,130.6
2023-03-07T03:25:03,42.805,6.029,0.037,-0.029,-0.035,105.0,104.0,103.0,13.4,1505.2,323.6,-0.8,1.8,2471.166,13.29,0.047,128.1
2023-03-07T03:28:03,42.805,6.029,0.027,-0.035,-0.029,105.0,103.0,103.0,13.4,1505.2,329.0,-0.7,1.8,2471.222,13.29,0.044,142.3
2023-03-07T03:31:03,42.805,6.029,0.036,-0.015,-0.004,107.0,103.0,104.0,13.4,1505.2,328.3,-0.8,1.8,2471.186,13.29,0.039,112.6
2023-03-07T03:34:03,42.805,6.029,0.034,-0.004,-0.036,105.0,104.0,104.0,13.3,1505.2,318.8,-0.8,1.8,2471.211,13.29,0.034,96.7
2023-03-07T03:37:03,42.805,6.029,0.015,0.004,-0.032,104.0,105.0,104.0,13.3,1505.2,319.3,-0.8,1.8,2471.226,13.29,0.015,75.1
2023-03-07T03:40:03,42.805,6.029,0.034,-0.003,-0.033,105.0,104.0,103.0,13.4,1505.2,317.8,-0.8,1.8,2471.241,13.29,0.034,95.0
2023-03-07T03:43:03,42.805,6.029,0.04,-0.019,-0.019,103.0,104.0,102.0,13.4,1505.2,328.8,-0.7,1.8,2471.211,13.29,0.044,115.4
2023-03-07T03:46:03,42.805,6.029,0.023,-0.004,-0.009,105.0,104.0,103.0,13.4,1505.2,331.6,-0.8,1.8,2471.248,13.29,0.023,99.9
2023-03-07T03:49:03,42.805,6.029,0.039,-0.019,-0.024,104.0,104.0,105.0,13.4,1505.2,319.9,-0.7,1.8,2471.223,13.29,0.043,116.0
2023-03-07T03:52:03,42.805,6.029,0.015,0.006,-0.006,105.0,104.0,103.0,13.3,1505.2,324.1,-0.8,1.8,2471.246,13.29,0.016,68.2
2023-03-07T03:55:03,42.805,6.029,0.032,-0.02,-0.021,104.0,104.0,104.0,13.4,1505.2,322.3,-0.8,1.8,2471.26,13.29,0.037,122.0
2023-03-07T03:58:03,42.805,6.029,0.025,-0.04,-0.04,105.0,104.0,103.0,13.4,1505.2,326.0,-0.8,1.8,2471.254,13.29,0.047,148.0
2023-03-07T04:04:03,42.805,6.029,-0.009,-0.014,-0.022,104.0,104.0,102.0,13.3,1505.2,334.9,-0.8,1.8,2471.287,13.28,0.016,212.7
2023-03-07T04:07:03,42.805,6.029,0.037,-0.016,0.003,105.0,102.0,103.0,13.4,1505.2,332.5,-0.8,1.8,2471.264,13.28,0.04,113.4
2023-03-07T04:10:03,42.805,6.029,0.012,-0.022,-0.035,103.0,103.0,104.0,13.4,1505.2,321.8,-0.8,1.8,2471.297,13.28,0.025,151.4
2023-03-07T04:13:03,42.805,6.029,0.056,-0.028,-0.01,105.0,105.0,103.0,13.4,1505.2,340.4,-0.8,1.8,2471.288,13.29,0.062,116.6
2023-03-07T04:16:03,42.805,6.029,0.056,-0.028,-0.025,104.0,104.0,103.0,13.4,1505.2,315.5,-0.7,1.8,2471.303,13.29,0.062,116.6
2023-03-07T04:19:03,42.805,6.029,0.031,-0.012,-0.031,105.0,104.0,104.0,13.4,1505.2,328.7,-0.8,1.8,2471.293,13.29,0.033,111.2
2023-03-07T04:22:03,42.805,6.029,0.016,-0.03,-0.036,105.0,104.0,104.0,13.4,1505.2,316.7,-0.8,1.8,2471.28,13.29,0.034,151.9
2023-03-07T04:25:03,42.805,6.029,0.048,-0.039,-0.018,104.0,103.0,104.0,13.4,1505.2,318.8,-0.7,1.8,2471.271,13.29,0.061,129.1
2023-03-07T04:28:03,42.805,6.029,-0.008,-0.019,-0.033,105.0,103.0,103.0,13.4,1505.2,334.7,-0.8,1.8,2471.283,13.29,0.02,202.8
2023-03-07T04:31:03,42.805,6.029,-0.008,-0.042,-0.05,104.0,104.0,104.0,13.4,1505.2,340.4,-0.7,1.8,2471.3,13.29,0.042,190.8
2023-03-07T04:34:03,42.805,6.029,0.018,-0.01,-0.03,103.0,104.0,103.0,13.4,1505.2,327.4,-0.8,1.8,2471.267,13.29,0.02,119.1
2023-03-07T04:37:03,42.805,6.029,0.04,-0.027,-0.025,104.0,103.0,103.0,13.3,1505.2,328.8,-0.8,1.8,2471.296,13.29,0.048,124.0
2023-03-07T04:40:03,42.805,6.029,0.023,-0.027,-0.017,104.0,103.0,103.0,13.4,1505.2,337.3,-0.8,1.8,2471.312,13.29,0.035,139.6
2023-03-07T04:43:03,42.805,6.029,0.02,-0.018,-0.028,104.0,104.0,103.0,13.4,1505.2,332.6,-0.8,1.8,2471.3,13.29,0.026,132.0
2023-03-07T04:46:03,42.805,6.029,0.035,-0.029,-0.009,104.0,104.0,103.0,13.4,1505.2,321.6,-0.8,1.8,2471.326,13.29,0.045,129.6
2023-03-07T04:49:03,42.805,6.029,0.031,-0.014,-0.032,104.0,104.0,103.0,13.4,1505.2,322.7,-0.8,1.8,2471.351,13.29,0.034,114.3
2023-03-07T04:52:03,42.805,6.029,0.005,-0.028,-0.046,104.0,103.0,104.0,13.4,1505.2,338.3,-0.8,1.8,2471.324,13.29,0.028,169.9
2023-03-07T04:55:03,42.805,6.029,0.02,-0.027,-0.03,104.0,103.0,104.0,13.3,1505.2,329.4,-0.8,1.8,2471.276,13.29,0.033,143.5
2023-03-07T04:58:03,42.805,6.029,0.034,-0.015,-0.032,105.0,103.0,103.0,13.3,1505.2,322.5,-0.8,1.8,2471.309,13.29,0.037,113.8
2023-03-07T05:04:03,42.805,6.029,0.032,-0.045,-0.044,103.0,104.0,103.0,13.4,1505.2,321.6,-0.8,1.8,2471.355,13.28,0.055,144.6
2023-03-07T05:07:03,42.805,6.029,0.027,-0.008,-0.004,104.0,104.0,103.0,13.4,1505.2,321.9,-0.8,1.8,2471.394,13.28,0.028,106.5
2023-03-07T05:10:03,42.805,6.029,0.046,-0.017,0.0,104.0,105.0,103.0,13.4,1505.2,317.5,-0.7,1.8,2471.35,13.28,0.049,110.3
2023-03-07T05:13:03,42.805,6.029,0.037,-0.019,0.009,105.0,102.0,103.0,13.3,1505.2,332.5,-0.8,1.8,2471.375,13.29,0.041,117.2
2023-03-07T05:16:03,42.805,6.029,0.022,-0.042,-0.034,103.0,105.0,103.0,13.4,1505.2,332.1,-0.8,1.8,2471.357,13.29,0.047,152.4
2023-03-07T05:19:03,42.805,6.029,0.02,-0.03,-0.012,105.0,102.0,104.0,13.4,1505.2,331.5,-0.8,1.8,2471.338,13.29,0.036,146.3
2023-03-07T05:22:03,42.805,6.029,0.023,-0.034,-0.045,104.0,102.0,103.0,13.3,1505.2,333.4,-0.7,1.8,2471.352,13.29,0.041,145.9
2023-03-07T05:25:03,42.805,6.029,0.052,-0.02,-0.012,104.0,103.0,102.0,13.4,1505.2,322.9,-0.7,1.8,2471.352,13.29,0.055,111.0
2023-03-07T05:28:03,42.805,6.029,0.052,-0.038,-0.015,102.0,103.0,102.0,13.4,1505.2,339.3,-0.8,1.8,2471.357,13.29,0.064,126.2
2023-03-07T05:31:03,42.805,6.029,0.024,-0.037,-0.031,103.0,104.0,102.0,13.3,1505.2,338.9,-0.8,1.8,2471.357,13.29,0.044,147.0
2023-03-07T05:34:03,42.805,6.029,0.031,-0.027,-0.006,103.0,102.0,102.0,13.3,1505.2,318.8,-0.8,1.8,2471.36,13.29,0.041,131.1
2023-03-07T05:37:03,42.805,6.029,0.029,-0.01,-0.022,103.0,104.0,102.0,13.4,1505.2,327.5,-0.8,1.8,2471.36,13.29,0.03,109.0
2023-03-07T05:40:03,42.805,6.029,0.029,-0.048,-0.008,103.0,102.0,102.0,13.3,1505.2,340.6,-0.8,1.8,2471.338,13.29,0.056,148.9
2023-03-07T05:43:03,42.805,6.029,0.019,-0.041,-0.027,103.0,103.0,102.0,13.3,1505.2,336.4,-0.8,1.8,2471.345,13.29,0.045,155.1
2023-03-07T05:46:03,42.805,6.029,0.043,-0.024,-0.057,105.0,103.0,102.0,13.4,1505.2,317.3,-0.8,1.8,2471.358,13.29,0.049,119.2
2023-03-07T05:49:03,42.805,6.029,0.0,-0.012,-0.027,103.0,104.0,103.0,13.4,1505.2,335.1,-0.8,1.8,2471.365,13.29,0.012,180.0
2023-03-07T05:52:03,42.805,6.029,0.031,-0.028,-0.012,104.0,103.0,103.0,13.4,1505.2,335.7,-0.8,1.8,2471.376,13.29,0.041,132.1
2023-03-07T05:55:03,42.805,6.029,0.0,-0.021,-0.039,104.0,103.0,102.0,13.3,1505.2,324.5,-0.7,1.8,2471.384,13.29,0.021,180.0
2023-03-07T05:58:03,42.805,6.029,0.034,-0.02,-0.004,103.0,103.0,103.0,13.4,1505.2,324.6,-0.8,1.8,2471.396,13.29,0.039,120.5
2023-03-07T06:04:03,42.805,6.029,0.012,-0.012,-0.025,103.0,103.0,103.0,13.4,1505.2,334.2,-0.8,1.8,2471.421,13.28,0.016,135.0
2023-03-07T06:07:03,42.805,6.029,0.033,-0.022,-0.015,104.0,104.0,103.0,13.4,1505.2,322.2,-0.8,1.8,2471.443,13.28,0.039,123.7
2023-03-07T06:10:03,42.805,6.029,0.015,-0.036,-0.043,104.0,105.0,102.0,13.4,1505.2,337.2,-0.8,1.8,2471.399,13.28,0.039,157.4
2023-03-07T06:13:03,42.805,6.029,0.021,-0.025,-0.054,106.0,105.0,103.0,13.4,1505.2,316.1,-0.7,1.8,2471.416,13.29,0.032,140.0
2023-03-07T06:16:03,42.805,6.029,0.032,-0.016,-0.019,105.0,104.0,103.0,13.4,1505.2,318.4,-0.7,1.8,2471.425,13.29,0.035,116.6
2023-03-07T06:19:03,42.805,6.029,0.034,-0.034,-0.041,105.0,104.0,103.0,13.4,1505.2,318.1,-0.8,1.8,2471.406,13.29,0.048,135.0
2023-03-07T06:22:03,42.805,6.029,0.017,-0.019,-0.009,105.0,104.0,104.0,13.4,1505.2,325.8,-0.8,1.8,2471.406,13.29,0.025,138.2
2023-03-07T06:25:03,42.805,6.029,0.011,-0.027,-0.027,105.0,104.0,104.0,13.4,1505.2,337.6,-0.8,1.8,2471.394,13.29,0.029,157.8
2023-03-07T06:28:03,42.805,6.029,0.024,-0.038,-0.032,104.0,104.0,103.0,13.3,1505.2,339.6,-0.7,1.8,2471.434,13.29,0.044,147.7
2023-03-07T06:31:03,42.805,6.029,0.013,-0.022,0.0,106.0,105.0,102.0,13.3,1505.2,337.1,-0.8,1.8,2471.415,13.29,0.025,149.4
2023-03-07T06:34:03,42.805,6.029,0.001,-0.032,-0.049,104.0,104.0,103.0,13.3,1505.2,316.1,-0.8,1.8,2471.405,13.29,0.032,178.2
2023-03-07T06:37:03,42.805,6.029,0.01,-0.013,-0.05,106.0,103.0,104.0,13.4,1505.2,329.3,-0.8,1.8,2471.404,13.29,0.016,142.4
2023-03-07T06:40:03,42.805,6.029,0.011,-0.02,-0.05,105.0,103.0,104.0,13.4,1505.2,318.0,-0.8,1.8,2471.387,13.29,0.022,151.2
2023-03-07T06:43:03,42.805,6.029,0.018,-0.031,-0.041,103.0,105.0,103.0,13.3,1505.2,322.6,-0.8,1.8,2471.396,13.29,0.035,149.9
2023-03-07T06:46:03,42.805,6.029,0.003,-0.028,-0.052,103.0,105.0,104.0,13.4,1505.2,316.7,-0.8,1.8,2471.411,13.29,0.028,173.9
2023-03-07T06:49:03,42.805,6.029,0.013,-0.021,-0.024,105.0,104.0,102.0,13.4,1505.2,315.5,-0.8,1.8,2471.422,13.29,0.024,148.2
2023-03-07T06:52:03,42.805,6.029,0.013,-0.024,-0.032,103.0,103.0,103.0,13.4,1505.2,332.6,-0.7,1.8,2471.373,13.29,0.027,151.6
2023-03-07T06:55:03,42.805,6.029,0.006,-0.033,-0.032,104.0,103.0,104.0,13.4,1505.2,340.3,-0.8,1.8,2471.431,13.29,0.033,169.7
2023-03-07T06:58:03,42.805,6.029,-0.003,-0.009,-0.028,104.0,104.0,103.0,13.4,1505.2,330.2,-0.8,1.8,2471.431,13.29,0.009,198.4
2023-03-07T07:04:03,42.805,6.029,0.033,-0.016,-0.023,104.0,103.0,103.0,13.3,1505.2,327.4,-0.7,1.8,2471.473,13.28,0.036,115.9
2023-03-07T07:07:03,42.805,6.029,0.019,-0.031,-0.026,104.0,103.0,103.0,13.4,1505.2,330.0,-0.8,1.8,2471.457,13.28,0.036,148.5
2023-03-07T07:10:03,42.805,6.029,0.013,-0.016,-0.042,105.0,104.0,103.0,13.4,1505.2,318.8,-0.7,1.8,2471.455,13.28,0.02,140.9
2023-03-07T07:13:03,42.805,6.029,0.033,-0.009,-0.042,104.0,103.0,104.0,13.4,1505.2,325.0,-0.7,1.8,2471.43,13.29,0.034,105.3
2023-03-07T07:16:03,42.805,6.029,0.012,-0.024,-0.05,104.0,103.0,103.0,13.3,1505.2,328.7,-0.8,1.8,2471.423,13.29,0.026,153.4
2023-03-07T07:19:03,42.805,6.029,0.019,-0.038,-0.021,105.0,103.0,103.0,13.4,1505.2,331.6,-0.8,1.8,2471.469,13.29,0.042,153.4
2023-03-07T07:22:03,42.805,6.029,0.041,-0.02,-0.04,104.0,104.0,103.0,13.3,1505.2,323.4,-0.8,1.8,2471.424,13.29,0.045,116.0
2023-03-07T07:25:03,42.805,6.029,0.017,-0.015,-0.009,103.0,103.0,103.0,13.3,1505.2,323.4,-0.8,1.8,2471.42,13.29,0.022,131.4
2023-03-07T07:28:03,42.805,6.029,0.007,-0.026,-0.013,105.0,103.0,103.0,13.4,1505.2,333.4,-0.7,1.8,2471.451,13.29,0.026,164.9
2023-03-07T07:31:03,42.805,6.029,0.03,-0.005,-0.031,104.0,102.0,103.0,13.4,1505.2,318.2,-0.8,1.8,2471.432,13.29,0.03,99.5
2023-03-07T07:34:03,42.805,6.029,0.009,-0.036,-0.039,105.0,104.0,103.0,13.3,1505.2,331.4,-0.8,1.8,2471.411,13.29,0.037,166.0
2023-03-07T07:37:03,42.805,6.029,0.0,-0.034,-0.036,104.0,104.0,103.0,13.3,1505.2,334.3,-0.8,1.8,2471.416,13.29,0.034,180.0
2023-03-07T07:40:03,42.805,6.029,0.019,-0.015,-0.006,105.0,104.0,104.0,13.4,1505.2,333.4,-0.7,1.8,2471.419,13.29,0.024,128.3
2023-03-07T07:43:03,42.805,6.029,0.018,-0.021,-0.032,105.0,104.0,103.0,13.3,1505.2,326.5,-0.8,1.8,2471.375,13.29,0.027,139.4
2023-03-07T07:46:03,42.805,6.029,0.025,-0.036,-0.031,104.0,103.0,103.0,13.4,1505.2,325.1,-0.8,1.8,2471.406,13.29,0.043,145.2
2023-03-07T07:49:03,42.805,6.029,-0.023,-0.018,-0.051,104.0,104.0,103.0,13.4,1505.2,324.4,-0.7,1.8,2471.44,13.29,0.029,232.0
2023-03-07T07:52:03,42.805,6.029,0.013,-0.006,-0.025,105.0,105.0,104.0,13.4,1505.2,328.5,-0.8,1.8,2471.404,13.29,0.014,114.8
2023-03-07T07:55:03,42.805,6.029,0.02,-0.021,-0.026,106.0,103.0,103.0,13.3,1505.2,325.5,-0.8,1.8,2471.408,13.29,0.028,136.4
2023-03-07T07:58:03,42.805,6.029,0.031,-0.006,-0.024,104.0,103.0,104.0,13.3,1505.2,323.4,-0.8,1.8,2471.429,13.29,0.031,101.0
2023-03-07T08:04:03,42.805,6.029,0.002,-0.013,-0.037,105.0,103.0,104.0,13.4,1505.2,322.7,-0.8,1.8,2471.446,13.28,0.013,171.3
2023-03-07T08:07:03,42.805,6.029,0.011,-0.018,-0.047,105.0,104.0,103.0,13.4,1505.2,341.8,-0.8,1.8,2471.439,13.28,0.021,148.6
2023-03-07T08:10:03,42.805,6.029,0.009,-0.006,-0.019,104.0,103.0,104.0,13.4,1505.2,318.7,-0.7,1.8,2471.461,13.28,0.01,123.7
2023-03-07T08:13:03,42.805,6.029,-0.007,-0.015,-0.041,105.0,103.0,104.0,13.3,1505.2,318.7,-0.8,1.8,2471.444,13.29,0.016,205.0
2023-03-07T08:16:03,42.805,6.029,0.043,-0.025,-0.062,104.0,104.0,104.0,13.4,1505.2,327.5,-0.8,1.8,2471.48,13.29,0.049,120.2
2023-03-07T08:19:03,42.805,6.029,0.022,-0.029,-0.011,105.0,104.0,103.0,13.4,1505.2,324.1,-0.8,1.8,2471.435,13.29,0.036,142.8
2023-03-07T08:22:03,42.805,6.029,-0.009,-0.014,-0.049,104.0,104.0,103.0,13.3,1505.2,329.0,-0.8,1.8,2471.457,13.29,0.016,212.7
2023-03-07T08:25:03,42.805,6.029,0.022,-0.012,-0.015,104.0,103.0,102.0,13.4,1505.2,319.4,-0.7,1.8,2471.438,13.29,0.025,118.6
2023-03-07T08:28:03,42.805,6.029,0.023,-0.031,-0.026,104.0,104.0,103.0,13.4,1505.2,327.8,-0.7,1.8,2471.43,13.29,0.038,143.4
2023-03-07T08:31:03,42.805,6.029,0.016,-0.013,-0.012,105.0,105.0,103.0,13.4,1505.2,333.9,-0.7,1.8,2471.442,13.29,0.02,129.1
2023-03-07T08:34:03,42.805,6.029,0.011,-0.017,-0.028,104.0,103.0,103.0,13.4,1505.2,317.9,-0.8,1.8,2471.406,13.29,0.02,147.1
2023-03-07T08:37:03,42.805,6.029,0.016,-0.024,-0.031,104.0,103.0,104.0,13.4,1505.2,329.8,-0.7,1.8,2471.386,13.29,0.028,146.3
2023-03-07T08:40:03,42.805,6.029,0.017,-0.018,-0.034,105.0,103.0,103.0,13.4,1505.2,338.9,-0.7,1.8,2471.414,13.29,0.024,136.6
2023-03-07T08:43:03,42.805,6.029,0.0,-0.009,-0.036,105.0,104.0,103.0,13.4,1505.2,334.6,-0.7,1.8,2471.401,13.29,0.009,180.0
2023-03-07T08:46:03,42.805,6.029,-0.001,-0.015,-0.054,105.0,104.0,103.0,13.4,1505.2,333.4,-0.8,1.8,2471.426,13.29,0.015,183.8
2023-03-07T08:49:03,42.805,6.029,0.015,-0.019,0.006,105.0,104.0,103.0,13.4,1505.2,329.1,-0.7,1.8,2471.422,13.29,0.024,141.7
2023-03-07T08:52:03,42.805,6.029,0.0,-0.013,-0.041,104.0,102.0,103.0,13.4,1505.2,319.8,-0.8,1.8,2471.419,13.29,0.013,180.0
2023-03-07T08:55:03,42.805,6.029,0.031,-0.036,-0.056,104.0,104.0,103.0,13.4,1505.2,332.5,-0.8,1.8,2471.412,13.29,0.047,139.3
2023-03-07T08:58:03,42.805,6.029,-0.001,-0.01,-0.013,103.0,104.0,102.0,13.3,1505.2,334.6,-0.8,1.8,2471.386,13.29,0.01,185.7
2023-03-07T09:04:03,42.805,6.029,0.026,-0.016,0.004,105.0,106.0,103.0,13.4,1505.2,335.5,-0.8,1.8,2471.457,13.28,0.03,121.6
2023-03-07T09:07:03,42.805,6.029,0.004,-0.035,-0.014,103.0,104.0,104.0,13.4,1505.2,337.0,-0.8,1.8,2471.452,13.28,0.035,173.5
2023-03-07T09:10:03,42.805,6.029,0.028,-0.02,-0.034,104.0,104.0,103.0,13.4,1505.2,330.2,-0.8,1.9,2471.448,13.28,0.034,125.5
2023-03-07T09:13:03,42.805,6.029,0.016,-0.041,-0.04,104.0,105.0,102.0,13.4,1505.2,329.0,-0.8,1.8,2471.438,13.29,0.044,158.7
2023-03-07T09:16:03,42.805,6.029,0.029,-0.033,-0.002,104.0,104.0,104.0,13.3,1505.2,327.6,-0.8,1.8,2471.42,13.29,0.043,138.7
2023-03-07T09:19:03,42.805,6.029,0.003,-0.035,-0.043,104.0,104.0,103.0,13.4,1505.2,322.0,-0.8,1.8,2471.408,13.29,0.035,175.1
2023-03-07T09:22:03,42.805,6.029,0.028,-0.009,-0.044,104.0,103.0,103.0,13.3,1505.2,322.2,-0.8,1.9,2471.462,13.29,0.029,107.8
2023-03-07T09:25:03,42.805,6.029,0.014,-0.03,-0.041,105.0,104.0,103.0,13.4,1505.2,330.4,-0.8,1.8,2471.393,13.29,0.033,155.0
2023-03-07T09:28:03,42.805,6.029,0.023,-0.011,-0.017,105.0,104.0,103.0,13.3,1505.2,324.6,-0.7,1.8,2471.41,13.29,0.025,115.6
2023-03-07T09:31:03,42.805,6.029,0.023,-0.015,-0.005,105.0,106.0,103.0,13.4,1505.2,337.3,-0.8,1.8,2471.401,13.29,0.027,123.1
2023-03-07T09:34:03,42.805,6.029,-0.005,-0.034,-0.027,105.0,104.0,103.0,13.4,1505.2,322.5,-0.8,1.8,2471.405,13.29,0.034,188.4
2023-03-07T09:37:03,42.805,6.029,0.022,-0.025,0.008,106.0,104.0,103.0,13.4,1505.2,325.3,-0.8,1.8,2471.361,13.29,0.033,138.7
2023-03-07T09:40:03,42.805,6.029,0.026,-0.001,0.005,104.0,105.0,103.0,13.4,1505.2,335.2,-0.8,1.8,2471.396,13.29,0.026,92.2
2023-03-07T09:43:03,42.805,6.029,0.0,0.003,0.026,104.0,104.0,104.0,13.4,1505.2,319.3,-0.8,1.8,2471.394,13.29,0.003,0.0
2023-03-07T09:46:03,42.805,6.029,0.019,-0.021,-0.005,104.0,104.0,104.0,13.3,1505.2,333.4,-0.8,1.8,2471.394,13.29,0.028,137.9
2023-03-07T09:49:03,42.805,6.029,0.017,-0.022,-0.019,104.0,104.0,103.0,13.4,1505.2,331.1,-0.8,1.8,2471.426,13.29,0.027,142.3
2023-03-07T09:52:03,42.805,6.029,-0.002,-0.022,-0.041,104.0,103.0,103.0,13.4,1505.2,339.5,-0.8,1.8,2471.389,13.29,0.022,185.2
2023-03-07T09:55:03,42.805,6.029,0.008,-0.029,-0.037,105.0,104.0,104.0,13.4,1505.2,332.1,-0.7,1.8,2471.375,13.29,0.03,164.6